Zurück zum Katalog

STARLINK-30176

AktivKommunikationVLEO
NORAD 57477·PAYLOAD·🇺🇸 United States

Gestartet Jul 28, 2023 von Cape Canaveral Space Force Station

Loading…

Nächste Überflüge (nächste 24 Stunden)

TLE

AktuellSource: CelesTrak SupGP

Epoche: Sep 14, 2026, 21:36 UTC

1 57477C 23107W   26257.90048611 -.00076951  00000+0 -27864-2 0  2579
2 57477  43.0020 347.2953 0001561 262.2564 228.3742 15.27625024    17

Verfolge STARLINK-30176 in Echtzeit mit AllMySat

Download on the App Store